| time (UTC) | temp F | wind direction | speed MPH | gust MPH | rain 1hr in | rain 24hr in | rain mn in | humidity % | barometer mb |
| 20260504050516 | 56 | 324 | 0.0 | 0.0 | 0.00 | 0.00 | 0.00 | 56 | 1015.8 |
| 20260504050014 | 57 | 324 | 0.0 | 0.0 | 0.00 | 0.00 | 0.00 | 55 | 1015.8 |
| 20260504045513 | 57 | 324 | 0.0 | 0.0 | 0.00 | 0.00 | 0.00 | 54 | 1015.7 |
| 20260504045013 | 57 | 324 | 0.0 | 0.0 | 0.00 | 0.00 | 0.00 | 53 | 1015.8 |
| 20260504044513 | 58 | 324 | 0.0 | 0.0 | 0.00 | 0.00 | 0.00 | 53 | 1015.7 |
| 20260504044015 | 58 | 324 | 0.0 | 0.0 | 0.00 | 0.00 | 0.00 | 52 | 1015.7 |
| 20260504043513 | 59 | 324 | 0.0 | 0.0 | 0.00 | 0.00 | 0.00 | 52 | 1015.7 |
| 20260504043013 | 59 | 324 | 0.0 | 0.0 | 0.00 | 0.00 | 0.00 | 51 | 1015.6 |
| 20260504042512 | 60 | 324 | 0.0 | 1.0 | 0.00 | 0.00 | 0.00 | 51 | 1015.5 |
| 20260504042012 | 60 | 324 | 0.0 | 1.0 | 0.00 | 0.00 | 0.00 | 49 | 1015.6 |
| 20260504041512 | 60 | 324 | 0.0 | 0.0 | 0.00 | 0.00 | 0.00 | 49 | 1015.5 |
| 20260504041012 | 61 | 324 | 0.0 | 0.0 | 0.00 | 0.00 | 0.00 | 48 | 1015.4 |
| 20260504040512 | 61 | 324 | 0.0 | 0.0 | 0.00 | 0.00 | 0.00 | 47 | 1015.4 |
| 20260504040012 | 62 | 324 | 0.0 | 0.0 | 0.00 | 0.00 | 0.00 | 46 | 1015.2 |
| 20260504035514 | 62 | 324 | 0.0 | 0.0 | 0.00 | 0.00 | 0.00 | 46 | 1015.2 |
| 20260504035012 | 63 | 324 | 0.0 | 0.0 | 0.00 | 0.00 | 0.00 | 46 | 1015.1 |
| 20260504034514 | 63 | 324 | 0.0 | 0.0 | 0.00 | 0.00 | 0.00 | 46 | 1015.0 |
| 20260504034011 | 63 | 324 | 0.0 | 0.0 | 0.00 | 0.00 | 0.00 | 45 | 1015.0 |
| 20260504033516 | 64 | 324 | 0.0 | 0.0 | 0.00 | 0.00 | 0.00 | 42 | 1015.0 |
| 20260504033011 | 64 | 324 | 0.0 | 0.0 | 0.00 | 0.00 | 0.00 | 44 | 1014.9 |
| 20260504032511 | 64 | 324 | 0.0 | 0.0 | 0.00 | 0.00 | 0.00 | 44 | 1014.9 |
| 20260504032011 | 65 | 324 | 0.0 | 0.0 | 0.00 | 0.00 | 0.00 | 43 | 1014.8 |
| 20260504031511 | 66 | 324 | 0.0 | 0.0 | 0.00 | 0.00 | 0.00 | 43 | 1014.9 |
| 20260504031012 | 66 | 324 | 0.0 | 0.0 | 0.00 | 0.00 | 0.00 | 40 | 1014.7 |
| 20260504030510 | 67 | 324 | 0.0 | 0.0 | 0.00 | 0.00 | 0.00 | 39 | 1014.8 |
| 20260504030009 | 67 | 324 | 0.0 | 0.0 | 0.00 | 0.00 | 0.00 | 39 | 1014.8 |
| 20260504025509 | 68 | 324 | 0.0 | 2.0 | 0.00 | 0.00 | 0.00 | 38 | 1014.9 |
| 20260504025009 | 68 | 324 | 0.0 | 2.0 | 0.00 | 0.00 | 0.00 | 39 | 1014.9 |
| 20260504024509 | 69 | 324 | 0.0 | 1.0 | 0.00 | 0.00 | 0.00 | 37 | 1014.8 |
| 20260504024011 | 69 | 324 | 0.0 | 2.0 | 0.00 | 0.00 | 0.00 | 37 | 1014.9 |
| 20260504023509 | 69 | 324 | 0.0 | 2.0 | 0.00 | 0.00 | 0.00 | 34 | 1014.9 |
| 20260504023008 | 70 | 323 | 0.0 | 5.0 | 0.00 | 0.00 | 0.00 | 36 | 1014.9 |
| 20260504022508 | 70 | 323 | 0.0 | 5.0 | 0.00 | 0.00 | 0.00 | 35 | 1014.9 |
| 20260504022007 | 70 | 331 | 1.0 | 5.0 | 0.00 | 0.00 | 0.00 | 34 | 1014.9 |
| 20260504021506 | 71 | 331 | 0.0 | 5.0 | 0.00 | 0.00 | 0.00 | 34 | 1015.0 |
| 20260504021006 | 71 | 318 | 1.0 | 5.0 | 0.00 | 0.00 | 0.00 | 31 | 1015.0 |
| 20260504020505 | 71 | 318 | 1.0 | 5.0 | 0.00 | 0.00 | 0.00 | 32 | 1015.2 |
| 20260504020005 | 71 | 325 | 0.0 | 3.0 | 0.00 | 0.00 | 0.00 | 33 | 1015.2 |
| 20260504015505 | 71 | 325 | 0.0 | 5.0 | 0.00 | 0.00 | 0.00 | 33 | 1015.2 |
| 20260504015005 | 71 | 325 | 0.0 | 6.0 | 0.00 | 0.00 | 0.00 | 32 | 1015.2 |
| 20260504014515 | 71 | 323 | 1.0 | 6.0 | 0.00 | 0.00 | 0.00 | 32 | 1015.3 |
| 20260504014005 | 72 | 346 | 0.0 | 6.0 | 0.00 | 0.00 | 0.00 | 33 | 1015.3 |
| 20260504013504 | 72 | 344 | 1.0 | 6.0 | 0.00 | 0.00 | 0.00 | 31 | 1015.3 |
| 20260504013005 | 72 | 234 | 0.0 | 7.0 | 0.00 | 0.00 | 0.00 | 30 | 1015.3 |
| 20260504012504 | 72 | 332 | 0.0 | 4.0 | 0.00 | 0.00 | 0.00 | 31 | 1015.4 |
| 20260504012002 | 72 | 332 | 1.0 | 5.0 | 0.00 | 0.00 | 0.00 | 31 | 1015.5 |
| 20260504011503 | 72 | 312 | 1.0 | 5.0 | 0.00 | 0.00 | 0.00 | 32 | 1015.5 |
| 20260504011002 | 72 | 23 | 0.0 | 6.0 | 0.00 | 0.00 | 0.00 | 32 | 1015.5 |
| 20260504010501 | 72 | 331 | 2.0 | 6.0 | 0.00 | 0.00 | 0.00 | 30 | 1015.5 |
| 20260504010002 | 72 | 298 | 0.0 | 3.0 | 0.00 | 0.00 | 0.00 | 31 | 1015.5 |
| 20260504005501 | 73 | 298 | 1.0 | 3.0 | 0.00 | 0.00 | 0.00 | 30 | 1015.5 |
| 20260504005001 | 73 | 294 | 0.0 | 6.0 | 0.00 | 0.00 | 0.00 | 29 | 1015.6 |
| 20260504004600 | 73 | 294 | 0.0 | 6.0 | 0.00 | 0.00 | 0.00 | 30 | 1015.5 |
| 20260504004100 | 73 | 258 | 2.0 | 7.0 | 0.00 | 0.00 | 0.00 | 29 | 1015.7 |
| 20260504003559 | 73 | 246 | 0.0 | 5.0 | 0.00 | 0.00 | 0.00 | 29 | 1015.6 |
| 20260504003059 | 73 | 316 | 0.0 | 7.0 | 0.00 | 0.00 | 0.00 | 31 | 1015.7 |
| 20260504002559 | 73 | 317 | 4.0 | 7.0 | 0.00 | 0.00 | 0.00 | 30 | 1015.8 |
| 20260504002101 | 73 | 331 | 2.0 | 5.0 | 0.00 | 0.00 | 0.00 | 29 | 1015.8 |
| 20260504001611 | 73 | 336 | 0.0 | 7.0 | 0.00 | 0.00 | 0.00 | 31 | 1015.8 |
| 20260504001058 | 73 | 329 | 0.0 | 5.0 | 0.00 | 0.00 | 0.00 | 30 | 1015.9 |
| 20260504000557 | 72 | 52 | 1.0 | 5.0 | 0.00 | 0.00 | 0.00 | 29 | 1015.8 |
| 20260504000105 | 72 | 349 | 2.0 | 7.0 | 0.00 | 0.00 | 0.00 | 30 | 1015.9 |
| 20260503235556 | 72 | 327 | 2.0 | 6.0 | 0.00 | 0.00 | 0.00 | 31 | 1016.0 |
| 20260503235056 | 72 | 306 | 2.0 | 6.0 | 0.00 | 0.00 | 0.00 | 31 | 1016.0 |
| 20260503234555 | 72 | 52 | 0.0 | 5.0 | 0.00 | 0.00 | 0.00 | 31 | 1016.0 |
| 20260503234055 | 73 | 339 | 0.0 | 7.0 | 0.00 | 0.00 | 0.00 | 31 | 1016.1 |
| 20260503233557 | 73 | 87 | 1.0 | 5.0 | 0.00 | 0.00 | 0.00 | 31 | 1016.1 |
| 20260503233054 | 73 | 86 | 1.0 | 6.0 | 0.00 | 0.00 | 0.00 | 31 | 1016.2 |
| 20260503232553 | 73 | 354 | 0.0 | 5.0 | 0.00 | 0.00 | 0.00 | 31 | 1016.3 |
| 20260503232053 | 72 | 345 | 1.0 | 6.0 | 0.00 | 0.00 | 0.00 | 31 | 1016.4 |
| 20260503231554 | 72 | 86 | 0.0 | 4.0 | 0.00 | 0.00 | 0.00 | 32 | 1016.4 |
| 20260503231052 | 72 | 347 | 2.0 | 6.0 | 0.00 | 0.00 | 0.00 | 32 | 1016.5 |
| 20260503230553 | 72 | 321 | 1.0 | 8.0 | 0.00 | 0.00 | 0.00 | 31 | 1016.6 |
| 20260503230050 | 72 | 6 | 2.0 | 10.0 | 0.00 | 0.00 | 0.00 | 31 | 1016.6 |
| 20260503225548 | 72 | 171 | 1.0 | 7.0 | 0.00 | 0.00 | 0.00 | 33 | 1016.7 |
| 20260503225049 | 72 | 334 | 2.0 | 7.0 | 0.00 | 0.00 | 0.00 | 32 | 1016.7 |
| 20260503224550 | 72 | 319 | 1.0 | 7.0 | 0.00 | 0.00 | 0.00 | 32 | 1016.9 |
| 20260503224046 | 71 | 224 | 0.0 | 4.0 | 0.00 | 0.00 | 0.00 | 33 | 1017.0 |
| 20260503223545 | 71 | 228 | 1.0 | 7.0 | 0.00 | 0.00 | 0.00 | 33 | 1017.0 |
| 20260503223045 | 71 | 339 | 3.0 | 5.0 | 0.00 | 0.00 | 0.00 | 32 | 1017.1 |
| 20260503222544 | 71 | 241 | 2.0 | 8.0 | 0.00 | 0.00 | 0.00 | 33 | 1017.1 |
| 20260503222044 | 71 | 354 | 1.0 | 8.0 | 0.00 | 0.00 | 0.00 | 32 | 1017.2 |
| 20260503221543 | 71 | 347 | 3.0 | 8.0 | 0.00 | 0.00 | 0.00 | 32 | 1017.2 |
| 20260503221045 | 71 | 274 | 0.0 | 8.0 | 0.00 | 0.00 | 0.00 | 33 | 1017.3 |
| 20260503220541 | 71 | 260 | 2.0 | 11.0 | 0.00 | 0.00 | 0.00 | 32 | 1017.5 |
| 20260503220041 | 71 | 329 | 4.0 | 11.0 | 0.00 | 0.00 | 0.00 | 33 | 1017.6 |
| 20260503215540 | 72 | 311 | 2.0 | 7.0 | 0.00 | 0.00 | 0.00 | 33 | 1017.6 |
| 20260503215038 | 71 | 1 | 0.0 | 6.0 | 0.00 | 0.00 | 0.00 | 34 | 1017.6 |
| 20260503214544 | 71 | 2 | 2.0 | 5.0 | 0.00 | 0.00 | 0.00 | 35 | 1017.7 |
| 20260503214036 | 71 | 356 | 0.0 | 6.0 | 0.00 | 0.00 | 0.00 | 34 | 1017.7 |
| 20260503213535 | 71 | 233 | 1.0 | 6.0 | 0.00 | 0.00 | 0.00 | 34 | 1017.9 |
| 20260503213052 | 71 | 13 | 2.0 | 5.0 | 0.00 | 0.00 | 0.00 | 35 | 1017.9 |
| 20260503212536 | 70 | 327 | 0.0 | 5.0 | 0.00 | 0.00 | 0.00 | 33 | 1018.0 |
| 20260503212033 | 70 | 304 | 1.0 | 5.0 | 0.00 | 0.00 | 0.00 | 36 | 1018.2 |
| 20260503211542 | 70 | 242 | 0.0 | 8.0 | 0.00 | 0.00 | 0.00 | 36 | 1018.2 |
| 20260503211035 | 70 | 306 | 1.0 | 9.0 | 0.00 | 0.00 | 0.00 | 37 | 1018.3 |
| 20260503210532 | 69 | 210 | 3.0 | 9.0 | 0.00 | 0.00 | 0.00 | 37 | 1018.2 |
| 20260503210032 | 69 | 251 | 0.0 | 7.0 | 0.00 | 0.00 | 0.00 | 36 | 1018.3 |
| 20260503205530 | 69 | 317 | 1.0 | 7.0 | 0.00 | 0.00 | 0.00 | 36 | 1018.3 |
| 20260503205032 | 69 | 64 | 1.0 | 4.0 | 0.00 | 0.00 | 0.00 | 35 | 1018.3 |
| 20260503204541 | 69 | 284 | 2.0 | 4.0 | 0.00 | 0.00 | 0.00 | 36 | 1018.4 |
| 20260503204027 | 69 | 30 | 0.0 | 7.0 | 0.00 | 0.00 | 0.00 | 37 | 1018.4 |
| 20260503203527 | 68 | 329 | 3.0 | 7.0 | 0.00 | 0.00 | 0.00 | 37 | 1018.5 |
| 20260503203026 | 68 | 232 | 1.0 | 3.0 | 0.00 | 0.00 | 0.00 | 38 | 1018.5 |
| 20260503202525 | 68 | 229 | 0.0 | 3.0 | 0.00 | 0.00 | 0.00 | 39 | 1018.6 |
| 20260503202024 | 68 | 236 | 0.0 | 5.0 | 0.00 | 0.00 | 0.00 | 39 | 1018.6 |
| 20260503201525 | 68 | 265 | 2.0 | 5.0 | 0.00 | 0.00 | 0.00 | 38 | 1018.7 |
| 20260503201022 | 68 | 350 | 0.0 | 6.0 | 0.00 | 0.00 | 0.00 | 39 | 1018.8 |
| 20260503200521 | 68 | 344 | 0.0 | 6.0 | 0.00 | 0.00 | 0.00 | 39 | 1019.0 |
| 20260503200020 | 67 | 309 | 0.0 | 5.0 | 0.00 | 0.00 | 0.00 | 41 | 1018.9 |
| 20260503195518 | 67 | 305 | 1.0 | 5.0 | 0.00 | 0.00 | 0.00 | 40 | 1019.0 |
| 20260503195017 | 67 | 235 | 1.0 | 6.0 | 0.00 | 0.00 | 0.00 | 40 | 1019.0 |
| 20260503194522 | 66 | 260 | 1.0 | 6.0 | 0.00 | 0.00 | 0.00 | 41 | 1019.2 |
| 20260503194016 | 66 | 251 | 0.0 | 6.0 | 0.00 | 0.00 | 0.00 | 42 | 1019.2 |
| 20260503193515 | 66 | 252 | 0.0 | 6.0 | 0.00 | 0.00 | 0.00 | 42 | 1019.2 |
| 20260503193015 | 65 | 280 | 3.0 | 6.0 | 0.00 | 0.00 | 0.00 | 42 | 1019.1 |
| 20260503192512 | 65 | 228 | 1.0 | 5.0 | 0.00 | 0.00 | 0.00 | 43 | 1019.2 |
| 20260503192011 | 65 | 294 | 2.0 | 7.0 | 0.00 | 0.00 | 0.00 | 43 | 1019.3 |
| 20260503191510 | 64 | 246 | 3.0 | 7.0 | 0.00 | 0.00 | 0.00 | 44 | 1019.3 |
| 20260503191013 | 64 | 298 | 1.0 | 6.0 | 0.00 | 0.00 | 0.00 | 44 | 1019.3 |
| 20260503190510 | 64 | 317 | 0.0 | 5.0 | 0.00 | 0.00 | 0.00 | 44 | 1019.4 |
| 20260503190008 | 64 | 317 | 2.0 | 6.0 | 0.00 | 0.00 | 0.00 | 45 | 1019.6 |
| 20260503185511 | 64 | 335 | 4.0 | 6.0 | 0.00 | 0.00 | 0.00 | 47 | 1019.5 |
| 20260503185005 | 64 | 334 | 3.0 | 7.0 | 0.00 | 0.00 | 0.00 | 47 | 1019.6 |
| 20260503184505 | 63 | 284 | 0.0 | 6.0 | 0.00 | 0.00 | 0.00 | 48 | 1019.5 |
| 20260503184004 | 63 | 355 | 1.0 | 8.0 | 0.00 | 0.00 | 0.00 | 47 | 1019.6 |
| 20260503183503 | 62 | 237 | 3.0 | 8.0 | 0.00 | 0.00 | 0.00 | 48 | 1019.7 |
| 20260503183000 | 62 | 350 | 0.0 | 4.0 | 0.00 | 0.00 | 0.00 | 50 | 1019.7 |
| 20260503182600 | 62 | 356 | 2.0 | 7.0 | 0.00 | 0.00 | 0.00 | 50 | 1019.8 |
| 20260503182059 | 62 | 7 | 2.0 | 7.0 | 0.00 | 0.00 | 0.00 | 49 | 1019.9 |
| 20260503181600 | 62 | 267 | 2.0 | 6.0 | 0.00 | 0.00 | 0.00 | 49 | 1019.9 |
| 20260503181058 | 61 | 280 | 2.0 | 6.0 | 0.00 | 0.00 | 0.00 | 49 | 1019.9 |
| 20260503180558 | 61 | 332 | 0.0 | 6.0 | 0.00 | 0.00 | 0.00 | 50 | 1019.9 |
| 20260503180056 | 61 | 258 | 3.0 | 6.0 | 0.00 | 0.00 | 0.00 | 51 | 1019.9 |
| 20260503175554 | 61 | 338 | 1.0 | 4.0 | 0.00 | 0.00 | 0.00 | 50 | 1019.9 |
| 20260503175054 | 60 | 298 | 0.0 | 4.0 | 0.00 | 0.00 | 0.00 | 53 | 1019.8 |
| 20260503174609 | 60 | 225 | 0.0 | 4.0 | 0.00 | 0.00 | 0.00 | 53 | 1019.9 |
| 20260503174052 | 60 | 302 | 1.0 | 7.0 | 0.00 | 0.00 | 0.00 | 53 | 1020.0 |
| 20260503173551 | 59 | 279 | 2.0 | 7.0 | 0.00 | 0.00 | 0.00 | 53 | 1020.0 |
| 20260503173109 | 59 | 204 | 0.0 | 3.0 | 0.00 | 0.00 | 0.00 | 55 | 1020.0 |
| 20260503172549 | 59 | 52 | 0.0 | 6.0 | 0.00 | 0.00 | 0.00 | 55 | 1020.2 |
| 20260503172050 | 58 | 323 | 0.0 | 6.0 | 0.00 | 0.00 | 0.00 | 54 | 1020.3 |
| 20260503171548 | 58 | 354 | 0.0 | 5.0 | 0.00 | 0.00 | 0.00 | 56 | 1020.4 |
| 20260503171048 | 58 | 354 | 2.0 | 6.0 | 0.00 | 0.00 | 0.00 | 57 | 1020.6 |
| 20260503170547 | 58 | 343 | 3.0 | 6.0 | 0.00 | 0.00 | 0.00 | 55 | 1020.7 |
| 20260503150530 | 43 | 348 | 0.0 | 2.0 | 0.00 | 0.00 | 0.00 | 86 | 1021.1 |
| 20260503131017 | 38 | 348 | 0.0 | 0.0 | 0.00 | 0.00 | 0.00 | 85 | 1020.7 |
| 20260503130518 | 38 | 348 | 0.0 | 0.0 | 0.00 | 0.00 | 0.00 | 85 | 1020.6 |
| 20260503110558 | 41 | 348 | 0.0 | 0.0 | 0.00 | 0.00 | 0.00 | 80 | 1019.9 |
| 20260503081539 | 48 | 348 | 0.0 | 0.0 | 0.00 | 0.00 | 0.00 | 70 | 1019.3 |
| 20260503081025 | 48 | 348 | 0.0 | 0.0 | 0.00 | 0.00 | 0.00 | 70 | 1019.3 |
| 20260503072516 | 49 | 348 | 0.0 | 0.0 | 0.00 | 0.00 | 0.00 | 67 | 1019.1 |
| 20260503072017 | 49 | 348 | 0.0 | 0.0 | 0.00 | 0.00 | 0.00 | 68 | 1019.1 |
| 20260503071513 | 49 | 348 | 0.0 | 0.0 | 0.00 | 0.00 | 0.00 | 68 | 1019.1 |
| 20260503071011 | 50 | 348 | 0.0 | 0.0 | 0.00 | 0.00 | 0.00 | 66 | 1019.0 |
| 20260503070511 | 50 | 348 | 0.0 | 0.0 | 0.00 | 0.00 | 0.00 | 66 | 1018.9 |